Time,TemperatureF,DewpointF,PressureIn,WindDirection,WindDirectionDegrees,WindSpeedMPH,WindSpeedGustMPH,Humidity,HourlyPrecipIn,Conditions,Clouds,dailyrainin,SoftwareType,DateUTC
2013-02-24 00:01:00,38.9,36.5,29.91,NNW,338,0.0,0.0,91,0.00,,---,0.00,VWS V14.01,2013-02-24 06:01:00,
2013-02-24 00:06:00,38.8,36.4,29.91,NNW,338,0.0,0.0,91,0.00,,---,0.00,VWS V14.01,2013-02-24 06:06:00,
2013-02-24 00:11:00,38.6,36.2,29.91,NNW,338,0.0,0.0,91,0.00,,---,0.00,VWS V14.01,2013-02-24 06:11:00,
2013-02-24 00:16:00,38.4,36.0,29.91,NNW,338,0.0,0.0,91,0.00,,---,0.00,VWS V14.01,2013-02-24 06:16:00,
2013-02-24 00:21:00,38.4,36.3,29.91,NNW,338,0.0,0.0,92,0.00,,---,0.00,VWS V14.01,2013-02-24 06:21:00,
2013-02-24 00:26:00,38.4,36.3,29.91,NNW,338,0.0,0.0,92,0.00,,---,0.00,VWS V14.01,2013-02-24 06:26:00,
2013-02-24 00:31:00,38.2,36.1,29.91,NNW,338,0.0,0.0,92,0.00,,---,0.00,VWS V14.01,2013-02-24 06:31:00,
2013-02-24 00:36:00,38.0,35.9,29.91,NNW,338,0.0,0.0,92,0.00,,---,0.00,VWS V14.01,2013-02-24 06:36:00,
2013-02-24 00:41:00,37.9,35.8,29.91,NW,315,0.0,0.0,92,0.00,,---,0.00,VWS V14.01,2013-02-24 06:41:00,
2013-02-24 00:46:00,37.9,36.0,29.94,NW,315,0.0,0.0,93,0.00,,---,0.00,VWS V14.01,2013-02-24 06:46:00,
2013-02-24 00:51:00,37.7,35.6,29.94,NW,315,0.0,0.0,92,0.00,,---,0.00,VWS V14.01,2013-02-24 06:51:00,
2013-02-24 00:56:00,37.7,35.8,29.94,NW,315,0.0,0.0,93,0.00,,---,0.00,VWS V14.01,2013-02-24 06:56:00,
2013-02-24 01:01:00,37.7,35.8,29.94,NW,315,0.0,0.0,93,0.00,,---,0.00,VWS V14.01,2013-02-24 07:01:00,
2013-02-24 01:06:00,37.5,35.7,29.94,NW,315,0.0,0.0,93,0.00,,---,0.00,VWS V14.01,2013-02-24 07:06:00,
2013-02-24 01:11:00,37.3,35.5,29.94,NW,315,0.0,0.0,93,0.00,,---,0.00,VWS V14.01,2013-02-24 07:11:00,
2013-02-24 01:16:00,37.3,35.5,29.94,NW,315,0.0,0.0,93,0.00,,---,0.00,VWS V14.01,2013-02-24 07:16:00,
2013-02-24 01:21:00,37.1,35.3,29.94,NW,315,0.0,0.0,93,0.00,,---,0.00,VWS V14.01,2013-02-24 07:21:00,
2013-02-24 01:26:00,37.1,35.3,29.94,NW,315,0.0,0.0,93,0.00,,---,0.00,VWS V14.01,2013-02-24 07:26:00,
2013-02-24 01:31:00,37.0,35.1,29.94,NW,315,0.0,0.0,93,0.00,,---,0.00,VWS V14.01,2013-02-24 07:31:00,
2013-02-24 01:36:00,37.0,35.4,29.94,NW,315,0.0,0.0,94,0.00,,---,0.00,VWS V14.01,2013-02-24 07:36:00,
2013-02-24 01:41:00,36.8,35.2,29.94,NW,315,0.0,0.0,94,0.00,,---,0.00,VWS V14.01,2013-02-24 07:41:00,
2013-02-24 01:46:00,36.8,35.2,29.94,NW,315,0.0,0.0,94,0.00,,---,0.00,VWS V14.01,2013-02-24 07:46:00,
2013-02-24 01:51:00,36.8,35.2,29.94,NW,315,0.0,0.0,94,0.00,,---,0.00,VWS V14.01,2013-02-24 07:51:00,
2013-02-24 01:56:00,36.6,35.0,29.94,NW,315,0.0,0.0,94,0.00,,---,0.00,VWS V14.01,2013-02-24 07:56:00,
2013-02-24 02:01:00,36.6,35.0,29.91,NW,315,0.0,0.0,94,0.00,,---,0.00,VWS V14.01,2013-02-24 08:01:00,
2013-02-24 02:06:00,36.6,35.0,29.91,NW,315,0.0,0.0,94,0.00,,---,0.00,VWS V14.01,2013-02-24 08:06:00,
2013-02-24 02:11:00,36.4,35.1,29.91,NW,315,0.0,0.0,95,0.00,,---,0.00,VWS V14.01,2013-02-24 08:11:00,
2013-02-24 02:16:00,36.4,35.1,29.91,NW,315,0.0,0.0,95,0.00,,---,0.00,VWS V14.01,2013-02-24 08:16:00,
2013-02-24 02:21:00,36.4,35.1,29.91,NW,315,0.0,0.0,95,0.00,,---,0.00,VWS V14.01,2013-02-24 08:21:00,
2013-02-24 02:26:00,36.2,35.0,29.91,NW,315,0.0,0.0,95,0.00,,---,0.00,VWS V14.01,2013-02-24 08:26:00,
2013-02-24 02:31:00,36.2,35.0,29.94,NW,315,0.0,0.0,95,0.00,,---,0.00,VWS V14.01,2013-02-24 08:31:00,
2013-02-24 02:36:00,36.1,34.8,29.94,NW,315,0.0,0.0,95,0.00,,---,0.00,VWS V14.01,2013-02-24 08:36:00,
2013-02-24 02:41:00,36.1,34.8,29.94,NW,315,0.0,0.0,95,0.00,,---,0.00,VWS V14.01,2013-02-24 08:41:00,
2013-02-24 02:46:00,36.1,34.8,29.94,NW,315,0.0,0.0,95,0.00,,---,0.00,VWS V14.01,2013-02-24 08:46:00,
2013-02-24 02:51:00,36.1,34.8,29.94,NW,315,0.0,0.0,95,0.00,,---,0.00,VWS V14.01,2013-02-24 08:51:00,
2013-02-24 02:56:00,36.1,34.8,29.94,NW,315,0.0,0.0,95,0.00,,---,0.00,VWS V14.01,2013-02-24 08:56:00,
2013-02-24 03:01:00,35.9,34.6,29.94,NW,315,0.0,0.0,95,0.00,,---,0.00,VWS V14.01,2013-02-24 09:01:00,
2013-02-24 03:06:00,35.9,34.6,29.94,NW,315,0.0,0.0,95,0.00,,---,0.00,VWS V14.01,2013-02-24 09:06:00,
2013-02-24 03:11:00,35.9,34.8,29.94,NW,315,0.0,0.0,96,0.00,,---,0.00,VWS V14.01,2013-02-24 09:11:00,
2013-02-24 03:16:00,35.9,34.8,29.91,NW,315,0.0,0.0,96,0.00,,---,0.00,VWS V14.01,2013-02-24 09:16:00,
2013-02-24 03:22:00,35.9,34.8,29.91,NW,315,0.0,0.0,96,0.00,,---,0.00,VWS V14.01,2013-02-24 09:22:00,
2013-02-24 03:27:00,35.9,34.8,29.91,NW,315,0.0,0.0,96,0.00,,---,0.00,VWS V14.01,2013-02-24 09:27:00,
2013-02-24 03:32:00,35.7,34.7,29.91,NW,315,0.0,0.0,96,0.00,,---,0.00,VWS V14.01,2013-02-24 09:32:00,
2013-02-24 03:37:00,35.5,34.2,29.91,NW,315,0.0,0.0,95,0.00,,---,0.00,VWS V14.01,2013-02-24 09:37:00,
2013-02-24 03:42:00,35.5,34.5,29.91,NW,315,0.0,0.0,96,0.00,,---,0.00,VWS V14.01,2013-02-24 09:42:00,
2013-02-24 03:47:00,35.5,34.2,29.91,NW,315,0.0,0.0,95,0.00,,---,0.00,VWS V14.01,2013-02-24 09:47:00,
2013-02-24 03:52:00,35.3,34.0,29.91,NW,315,0.0,0.0,95,0.00,,---,0.00,VWS V14.01,2013-02-24 09:52:00,
2013-02-24 03:57:00,35.3,34.0,29.91,NW,315,0.0,0.0,95,0.00,,---,0.00,VWS V14.01,2013-02-24 09:57:00,
2013-02-24 04:02:00,35.3,34.3,29.94,NW,315,0.0,0.0,96,0.00,,---,0.00,VWS V14.01,2013-02-24 10:02:00,
2013-02-24 04:07:00,35.2,33.9,29.94,NW,315,0.0,0.0,95,0.00,,---,0.00,VWS V14.01,2013-02-24 10:07:00,
2013-02-24 04:12:00,35.0,33.7,29.94,NNW,338,0.0,0.0,95,0.00,,---,0.00,VWS V14.01,2013-02-24 10:12:00,
2013-02-24 04:17:00,35.0,33.7,29.91,NNW,338,0.0,0.0,95,0.00,,---,0.00,VWS V14.01,2013-02-24 10:17:00,
2013-02-24 04:22:00,35.0,34.0,29.91,NNW,338,0.0,0.0,96,0.00,,---,0.00,VWS V14.01,2013-02-24 10:22:00,
2013-02-24 04:27:00,35.0,34.0,29.91,NNW,338,0.0,0.0,96,0.00,,---,0.00,VWS V14.01,2013-02-24 10:27:00,
2013-02-24 04:32:00,35.0,34.0,29.91,NNW,338,0.0,0.0,96,0.00,,---,0.00,VWS V14.01,2013-02-24 10:32:00,
2013-02-24 04:37:00,35.0,34.0,29.91,NNW,338,0.0,0.0,96,0.00,,---,0.00,VWS V14.01,2013-02-24 10:37:00,
2013-02-24 04:42:00,35.0,34.0,29.91,NNW,338,0.0,0.0,96,0.00,,---,0.00,VWS V14.01,2013-02-24 10:42:00,
2013-02-24 04:47:00,35.0,34.0,29.94,NNW,338,0.0,0.0,96,0.00,,---,0.00,VWS V14.01,2013-02-24 10:47:00,
2013-02-24 04:52:00,34.8,33.8,29.94,NNW,338,0.0,0.0,96,0.00,,---,0.00,VWS V14.01,2013-02-24 10:52:00,
2013-02-24 04:57:00,34.8,33.8,29.94,NNW,338,0.0,0.0,96,0.00,,---,0.00,VWS V14.01,2013-02-24 10:57:00,
2013-02-24 05:02:00,34.8,33.8,29.91,NNW,338,0.0,0.0,96,0.00,,---,0.00,VWS V14.01,2013-02-24 11:02:00,
2013-02-24 05:07:00,34.8,33.8,29.91,NNW,338,0.0,0.0,96,0.00,,---,0.00,VWS V14.01,2013-02-24 11:07:00,
2013-02-24 05:12:00,34.8,34.0,29.91,NNW,338,0.0,0.0,97,0.00,,---,0.00,VWS V14.01,2013-02-24 11:12:00,
2013-02-24 05:17:00,34.8,33.8,29.91,NNW,338,0.0,0.0,96,0.00,,---,0.00,VWS V14.01,2013-02-24 11:17:00,
2013-02-24 05:22:00,34.8,33.8,29.91,NNW,338,0.0,0.0,96,0.00,,---,0.00,VWS V14.01,2013-02-24 11:22:00,
2013-02-24 05:27:00,34.8,34.0,29.91,SSW,202,0.0,0.0,97,0.00,,---,0.00,VWS V14.01,2013-02-24 11:27:00,
2013-02-24 05:32:00,35.0,34.2,29.91,SSW,202,0.0,0.0,97,0.00,,---,0.00,VWS V14.01,2013-02-24 11:32:00,
2013-02-24 05:37:00,35.0,34.2,29.91,SSW,202,0.0,0.0,97,0.00,,---,0.00,VWS V14.01,2013-02-24 11:37:00,
2013-02-24 05:42:00,35.0,34.2,29.91,SW,225,0.0,0.0,97,0.00,,---,0.00,VWS V14.01,2013-02-24 11:42:00,
2013-02-24 05:47:00,34.8,34.0,29.94,WNW,292,0.0,0.0,97,0.00,,---,0.00,VWS V14.01,2013-02-24 11:47:00,
2013-02-24 05:52:00,34.8,34.0,29.94,NW,315,0.0,0.0,97,0.00,,---,0.00,VWS V14.01,2013-02-24 11:52:00,
2013-02-24 05:57:00,34.8,34.0,29.94,NW,315,0.0,0.0,97,0.00,,---,0.00,VWS V14.01,2013-02-24 11:57:00,
2013-02-24 06:02:00,34.6,33.9,29.94,NW,315,0.0,0.0,97,0.00,,---,0.00,VWS V14.01,2013-02-24 12:02:00,
2013-02-24 06:07:00,34.6,33.9,29.94,NNW,338,0.0,0.0,97,0.00,,---,0.00,VWS V14.01,2013-02-24 12:07:00,
2013-02-24 06:12:00,34.4,33.7,29.94,NNW,338,0.0,0.0,97,0.00,,---,0.00,VWS V14.01,2013-02-24 12:12:00,
2013-02-24 06:17:00,34.4,33.7,29.94,NNW,338,0.0,0.0,97,0.00,,---,0.00,VWS V14.01,2013-02-24 12:17:00,
2013-02-24 06:22:00,34.4,33.7,29.94,NNW,338,0.0,0.0,97,0.00,,---,0.00,VWS V14.01,2013-02-24 12:22:00,
2013-02-24 06:27:00,34.4,33.7,29.94,NNW,338,0.0,0.0,97,0.00,,---,0.00,VWS V14.01,2013-02-24 12:27:00,
2013-02-24 06:32:00,34.4,33.7,29.94,NNW,338,0.0,0.0,97,0.00,,---,0.00,VWS V14.01,2013-02-24 12:32:00,
2013-02-24 06:37:00,34.4,33.9,29.94,NNW,338,0.0,0.0,98,0.00,,---,0.00,VWS V14.01,2013-02-24 12:37:00,
2013-02-24 06:44:00,34.4,33.9,29.94,NNW,338,0.0,0.0,98,0.00,,---,0.00,VWS V14.01,2013-02-24 12:44:00,
2013-02-24 06:49:00,34.4,33.7,29.94,NNW,338,0.0,0.0,97,0.00,,---,0.00,VWS V14.01,2013-02-24 12:49:00,
2013-02-24 06:54:00,34.6,34.1,29.94,NNW,338,0.0,0.0,98,0.00,,---,0.00,VWS V14.01,2013-02-24 12:54:00,
2013-02-24 06:59:00,34.6,34.1,29.94,NNW,338,0.0,0.0,98,0.00,,---,0.00,VWS V14.01,2013-02-24 12:59:00,
2013-02-24 07:04:00,34.8,34.3,29.94,NNW,338,0.0,0.0,98,0.00,,---,0.00,VWS V14.01,2013-02-24 13:04:00,
2013-02-24 07:09:00,35.0,34.2,29.94,NNW,338,0.0,0.0,97,0.00,,---,0.00,VWS V14.01,2013-02-24 13:09:00,
2013-02-24 07:14:00,35.2,34.7,29.94,WNW,292,0.0,0.0,98,0.00,,---,0.00,VWS V14.01,2013-02-24 13:14:00,
2013-02-24 07:19:00,35.5,35.0,29.94,WNW,292,0.0,0.0,98,0.00,,---,0.00,VWS V14.01,2013-02-24 13:19:00,
2013-02-24 07:24:00,36.1,35.5,29.94,NE,45,1.3,1.6,98,0.00,,---,0.00,VWS V14.01,2013-02-24 13:24:00,
2013-02-24 07:29:00,36.6,36.1,29.94,WNW,292,0.0,0.0,98,0.00,,---,0.00,VWS V14.01,2013-02-24 13:29:00,
2013-02-24 07:34:00,37.7,37.2,29.94,WNW,292,0.0,0.0,98,0.00,,---,0.00,VWS V14.01,2013-02-24 13:34:00,
2013-02-24 07:39:00,38.9,38.4,29.94,WNW,292,0.0,0.0,98,0.00,,---,0.00,VWS V14.01,2013-02-24 13:39:00,
2013-02-24 07:45:00,39.7,39.1,29.94,NW,315,2.0,2.0,98,0.00,,---,0.00,VWS V14.01,2013-02-24 13:45:00,
2013-02-24 07:50:00,39.8,39.3,29.94,NW,315,0.0,0.0,98,0.00,,---,0.00,VWS V14.01,2013-02-24 13:50:00,
2013-02-24 07:55:00,40.2,39.7,29.94,NNE,22,0.0,0.0,98,0.00,,---,0.00,VWS V14.01,2013-02-24 13:55:00,
2013-02-24 08:00:00,40.6,40.0,29.94,NNE,22,0.0,0.0,98,0.00,,---,0.00,VWS V14.01,2013-02-24 14:00:00,
2013-02-24 08:05:00,40.9,40.4,29.94,SE,135,0.0,0.0,98,0.00,,---,0.00,VWS V14.01,2013-02-24 14:05:00,
2013-02-24 08:10:00,41.6,41.1,29.94,East,90,0.0,0.0,98,0.00,,---,0.00,VWS V14.01,2013-02-24 14:10:00,
2013-02-24 08:15:00,42.4,41.6,29.94,ENE,68,0.0,0.0,97,0.00,,---,0.00,VWS V14.01,2013-02-24 14:15:00,
2013-02-24 08:20:00,43.3,41.7,29.94,North,0,0.0,0.0,94,0.00,,---,0.00,VWS V14.01,2013-02-24 14:20:00,
2013-02-24 08:25:00,44.0,41.5,29.94,NE,45,0.0,0.0,91,0.00,,---,0.00,VWS V14.01,2013-02-24 14:25:00,
2013-02-24 08:30:00,44.7,40.8,29.94,ESE,112,0.9,0.9,86,0.00,,---,0.00,VWS V14.01,2013-02-24 14:30:00,
2013-02-24 08:35:00,45.4,41.5,29.94,ENE,68,1.1,1.1,86,0.00,,---,0.00,VWS V14.01,2013-02-24 14:35:00,
2013-02-24 08:40:00,46.1,41.6,29.94,ESE,112,2.0,2.0,84,0.00,,---,0.00,VWS V14.01,2013-02-24 14:40:00,
2013-02-24 08:45:00,46.9,41.0,29.97,SSE,158,2.7,4.3,80,0.00,,---,0.00,VWS V14.01,2013-02-24 14:45:00,
2013-02-24 08:50:00,47.6,39.7,29.97,North,0,2.5,2.5,74,0.00,,---,0.00,VWS V14.01,2013-02-24 14:50:00,
2013-02-24 08:55:00,48.3,41.4,29.97,NNW,338,0.0,1.1,77,0.00,,---,0.00,VWS V14.01,2013-02-24 14:55:00,
2013-02-24 09:00:00,50.1,42.2,29.97,ENE,68,0.0,0.0,74,0.00,,---,0.00,VWS V14.01,2013-02-24 15:00:00,
2013-02-24 09:05:00,51.5,39.8,29.97,NE,45,2.2,2.9,64,0.00,,---,0.00,VWS V14.01,2013-02-24 15:05:00,
2013-02-24 09:10:00,53.2,40.9,29.97,ENE,68,3.4,3.4,63,0.00,,---,0.00,VWS V14.01,2013-02-24 15:10:00,
2013-02-24 09:15:00,54.2,41.9,29.97,SSE,158,0.0,0.0,63,0.00,,---,0.00,VWS V14.01,2013-02-24 15:15:00,
2013-02-24 09:20:00,55.5,41.4,29.97,NNE,22,4.0,4.0,59,0.00,,---,0.00,VWS V14.01,2013-02-24 15:20:00,
2013-02-24 09:25:00,55.9,42.6,29.97,ENE,68,0.0,0.0,61,0.00,,---,0.00,VWS V14.01,2013-02-24 15:25:00,
2013-02-24 09:30:00,56.0,40.1,29.97,NE,45,2.7,2.7,55,0.00,,---,0.00,VWS V14.01,2013-02-24 15:30:00,
2013-02-24 09:35:00,56.9,39.5,29.97,NNE,22,1.6,1.6,52,0.00,,---,0.00,VWS V14.01,2013-02-24 15:35:00,
2013-02-24 09:40:00,57.5,38.5,29.97,NNW,338,0.0,2.7,49,0.00,,---,0.00,VWS V14.01,2013-02-24 15:40:00,
2013-02-24 09:45:00,58.0,38.5,29.97,NNW,338,2.2,2.2,48,0.00,,---,0.00,VWS V14.01,2013-02-24 15:45:00,
2013-02-24 09:50:00,58.2,38.1,29.97,NNE,22,2.5,3.4,47,0.00,,---,0.00,VWS V14.01,2013-02-24 15:50:00,
2013-02-24 09:55:00,59.1,40.0,29.97,North,0,0.0,0.0,49,0.00,,---,0.00,VWS V14.01,2013-02-24 15:55:00,
2013-02-24 10:00:00,58.9,39.3,29.97,WNW,292,0.0,1.1,48,0.00,,---,0.00,VWS V14.01,2013-02-24 16:00:00,
2013-02-24 10:05:00,58.7,38.6,29.97,NNW,338,3.1,3.1,47,0.00,,---,0.00,VWS V14.01,2013-02-24 16:05:00,
2013-02-24 10:10:00,59.8,40.1,29.97,ESE,112,1.3,2.0,48,0.00,,---,0.00,VWS V14.01,2013-02-24 16:10:00,
2013-02-24 10:15:00,60.7,40.9,29.97,WNW,292,0.0,1.3,48,0.00,,---,0.00,VWS V14.01,2013-02-24 16:15:00,
2013-02-24 10:20:00,61.1,40.2,29.97,North,0,2.2,2.5,46,0.00,,---,0.00,VWS V14.01,2013-02-24 16:20:00,
2013-02-24 10:25:00,61.1,39.6,29.97,ENE,68,0.0,0.0,45,0.00,,---,0.00,VWS V14.01,2013-02-24 16:25:00,
2013-02-24 10:30:00,61.6,40.1,29.97,North,0,0.0,1.6,45,0.00,,---,0.00,VWS V14.01,2013-02-24 16:30:00,
2013-02-24 10:35:00,62.9,42.4,29.97,SE,135,1.3,2.9,47,0.00,,---,0.00,VWS V14.01,2013-02-24 16:35:00,
2013-02-24 10:40:00,62.3,39.0,29.97,NNE,22,0.0,0.0,42,0.00,,---,0.00,VWS V14.01,2013-02-24 16:40:00,
2013-02-24 10:45:00,62.9,40.1,29.97,WSW,248,0.0,0.0,43,0.00,,---,0.00,VWS V14.01,2013-02-24 16:45:00,
2013-02-24 10:50:00,63.1,39.0,29.97,NNE,22,1.3,1.3,41,0.00,,---,0.00,VWS V14.01,2013-02-24 16:50:00,
2013-02-24 10:55:00,64.3,41.4,29.97,ESE,112,1.6,2.5,43,0.00,,---,0.00,VWS V14.01,2013-02-24 16:55:00,
2013-02-24 11:00:00,65.9,42.8,29.97,SSE,158,0.0,2.5,43,0.00,,---,0.00,VWS V14.01,2013-02-24 17:00:00,
2013-02-24 11:05:00,67.4,43.5,29.97,NE,45,0.0,0.0,42,0.00,,---,0.00,VWS V14.01,2013-02-24 17:05:00,
2013-02-24 11:10:00,67.7,41.9,29.97,SSW,202,3.4,3.4,39,0.00,,---,0.00,VWS V14.01,2013-02-24 17:10:00,
2013-02-24 11:15:00,69.5,43.5,29.97,SSE,158,5.8,5.8,39,0.00,,---,0.00,VWS V14.01,2013-02-24 17:15:00,
2013-02-24 11:20:00,68.8,40.8,29.97,ESE,112,0.0,0.9,36,0.00,,---,0.00,VWS V14.01,2013-02-24 17:20:00,
2013-02-24 11:25:00,68.8,40.1,29.97,North,0,4.0,4.0,35,0.00,,---,0.00,VWS V14.01,2013-02-24 17:25:00,
2013-02-24 11:30:00,70.4,41.5,29.97,SSE,158,0.0,0.9,35,0.00,,---,0.00,VWS V14.01,2013-02-24 17:30:00,
2013-02-24 11:35:00,71.0,41.2,29.97,East,90,2.9,2.9,34,0.00,,---,0.00,VWS V14.01,2013-02-24 17:35:00,
2013-02-24 11:40:00,71.5,41.7,29.97,SSE,158,3.1,3.1,34,0.00,,---,0.00,VWS V14.01,2013-02-24 17:40:00,
2013-02-24 11:45:00,70.4,40.0,29.97,WNW,292,3.6,3.6,33,0.00,,---,0.00,VWS V14.01,2013-02-24 17:45:00,
2013-02-24 11:50:00,69.9,39.5,29.97,ENE,68,4.3,4.3,33,0.00,,---,0.00,VWS V14.01,2013-02-24 17:50:00,
2013-02-24 11:55:00,71.0,40.5,29.97,SSE,158,4.0,4.0,33,0.00,,---,0.00,VWS V14.01,2013-02-24 17:55:00,
2013-02-24 12:00:00,70.3,39.8,29.94,SSE,158,2.5,2.5,33,0.00,,---,0.00,VWS V14.01,2013-02-24 18:00:00,
2013-02-24 12:06:00,70.3,39.8,29.94,NE,45,2.0,2.5,33,0.00,,---,0.00,VWS V14.01,2013-02-24 18:06:00,
2013-02-24 12:11:00,69.2,38.9,29.94,SE,135,4.3,4.3,33,0.00,,---,0.00,VWS V14.01,2013-02-24 18:11:00,
2013-02-24 12:16:00,69.5,39.2,29.94,NNW,338,2.0,2.2,33,0.00,,---,0.00,VWS V14.01,2013-02-24 18:16:00,
2013-02-24 12:21:00,69.7,39.4,29.94,West,270,1.1,1.1,33,0.00,,---,0.00,VWS V14.01,2013-02-24 18:21:00,
2013-02-24 12:26:00,70.3,40.6,29.94,SSE,158,2.0,2.5,34,0.00,,---,0.00,VWS V14.01,2013-02-24 18:26:00,
2013-02-24 12:31:00,69.4,38.3,29.94,NNE,22,2.7,4.0,32,0.00,,---,0.00,VWS V14.01,2013-02-24 18:31:00,
2013-02-24 12:36:00,69.9,39.5,29.94,SSE,158,3.4,3.4,33,0.00,,---,0.00,VWS V14.01,2013-02-24 18:36:00,
2013-02-24 12:41:00,70.4,40.8,29.94,SSW,202,0.0,4.7,34,0.00,,---,0.00,VWS V14.01,2013-02-24 18:41:00,
2013-02-24 12:46:00,70.6,40.2,29.94,ESE,112,0.0,1.3,33,0.00,,---,0.00,VWS V14.01,2013-02-24 18:46:00,
2013-02-24 12:51:00,71.3,40.8,29.94,ESE,112,2.7,3.1,33,0.00,,---,0.00,VWS V14.01,2013-02-24 18:51:00,
2013-02-24 12:56:00,71.9,41.2,29.94,East,90,1.1,2.7,33,0.00,,---,0.00,VWS V14.01,2013-02-24 18:56:00,
2013-02-24 13:01:00,72.1,40.6,29.91,NE,45,2.2,2.2,32,0.00,,---,0.00,VWS V14.01,2013-02-24 19:01:00,
2013-02-24 13:06:00,70.8,39.5,29.91,North,0,3.8,3.8,32,0.00,,---,0.00,VWS V14.01,2013-02-24 19:06:00,
2013-02-24 13:11:00,71.0,39.7,29.91,ESE,112,2.5,5.4,32,0.00,,---,0.00,VWS V14.01,2013-02-24 19:11:00,
2013-02-24 13:16:00,73.3,41.7,29.91,SSE,158,2.5,2.5,32,0.00,,---,0.00,VWS V14.01,2013-02-24 19:16:00,
2013-02-24 13:21:00,73.9,42.2,29.91,SSE,158,0.0,1.3,32,0.00,,---,0.00,VWS V14.01,2013-02-24 19:21:00,
2013-02-24 13:26:00,74.6,42.0,29.91,SSE,158,4.9,4.9,31,0.00,,---,0.00,VWS V14.01,2013-02-24 19:26:00,
2013-02-24 13:31:00,75.5,42.8,29.91,WSW,248,2.0,2.5,31,0.00,,---,0.00,VWS V14.01,2013-02-24 19:31:00,
2013-02-24 13:36:00,75.7,42.9,29.91,ESE,112,2.9,2.9,31,0.00,,---,0.00,VWS V14.01,2013-02-24 19:36:00,
2013-02-24 13:41:00,75.1,42.5,29.91,SSE,158,1.6,1.6,31,0.00,,---,0.00,VWS V14.01,2013-02-24 19:41:00,
2013-02-24 13:46:00,74.9,41.4,29.91,ESE,112,3.6,6.5,30,0.00,,---,0.00,VWS V14.01,2013-02-24 19:46:00,
2013-02-24 13:51:00,74.9,41.4,29.91,NNE,22,3.4,3.4,30,0.00,,---,0.00,VWS V14.01,2013-02-24 19:51:00,
2013-02-24 13:56:00,74.4,40.1,29.91,ENE,68,1.3,1.3,29,0.00,,---,0.00,VWS V14.01,2013-02-24 19:56:00,
2013-02-24 14:01:00,75.3,42.6,29.88,SSW,202,1.6,1.6,31,0.00,,---,0.00,VWS V14.01,2013-02-24 20:01:00,
2013-02-24 14:06:00,75.1,41.6,29.88,NE,45,2.9,2.9,30,0.00,,---,0.00,VWS V14.01,2013-02-24 20:06:00,
2013-02-24 14:11:00,74.2,40.0,29.88,ENE,68,2.0,2.0,29,0.00,,---,0.00,VWS V14.01,2013-02-24 20:11:00,
2013-02-24 14:16:00,74.2,41.7,29.88,ENE,68,1.3,1.3,31,0.00,,---,0.00,VWS V14.01,2013-02-24 20:16:00,
2013-02-24 14:21:00,75.1,41.6,29.88,SE,135,2.9,3.1,30,0.00,,---,0.00,VWS V14.01,2013-02-24 20:21:00,
2013-02-24 14:26:00,75.5,42.8,29.88,SSE,158,6.0,6.0,31,0.00,,---,0.00,VWS V14.01,2013-02-24 20:26:00,
2013-02-24 14:31:00,75.7,42.9,29.88,ESE,112,2.7,4.3,31,0.00,,---,0.00,VWS V14.01,2013-02-24 20:31:00,
2013-02-24 14:36:00,75.3,41.8,29.88,South,180,7.2,7.8,30,0.00,,---,0.00,VWS V14.01,2013-02-24 20:36:00,
2013-02-24 14:41:00,75.3,41.8,29.88,ENE,68,2.2,2.9,30,0.00,,---,0.00,VWS V14.01,2013-02-24 20:41:00,
2013-02-24 14:46:00,75.3,41.8,29.88,WSW,248,2.5,5.8,30,0.00,,---,0.00,VWS V14.01,2013-02-24 20:46:00,
2013-02-24 14:51:00,75.3,41.8,29.88,SSE,158,2.5,2.5,30,0.00,,---,0.00,VWS V14.01,2013-02-24 20:51:00,
2013-02-24 14:56:00,75.3,41.8,29.88,ENE,68,3.1,3.6,30,0.00,,---,0.00,VWS V14.01,2013-02-24 20:56:00,
2013-02-24 15:01:00,75.3,41.8,29.88,SSE,158,4.7,4.7,30,0.00,,---,0.00,VWS V14.01,2013-02-24 21:01:00,
2013-02-24 15:06:00,74.6,40.3,29.88,East,90,3.4,4.0,29,0.00,,---,0.00,VWS V14.01,2013-02-24 21:06:00,
2013-02-24 15:11:00,74.2,40.0,29.88,ESE,112,1.6,2.5,29,0.00,,---,0.00,VWS V14.01,2013-02-24 21:11:00,
2013-02-24 15:17:00,74.8,40.4,29.88,ESE,112,2.2,2.7,29,0.00,,---,0.00,VWS V14.01,2013-02-24 21:17:00,
2013-02-24 15:22:00,75.3,40.9,29.88,NNW,338,2.7,2.7,29,0.00,,---,0.00,VWS V14.01,2013-02-24 21:22:00,
2013-02-24 15:27:00,75.5,41.0,29.88,SSE,158,0.9,4.0,29,0.00,,---,0.00,VWS V14.01,2013-02-24 21:27:00,
2013-02-24 15:32:00,75.7,42.1,29.85,SSE,158,4.0,4.3,30,0.00,,---,0.00,VWS V14.01,2013-02-24 21:32:00,
2013-02-24 15:37:00,75.7,41.2,29.85,ENE,68,2.9,2.9,29,0.00,,---,0.00,VWS V14.01,2013-02-24 21:37:00,
2013-02-24 15:42:00,75.7,41.2,29.85,NNW,338,1.3,2.9,29,0.00,,---,0.00,VWS V14.01,2013-02-24 21:42:00,
2013-02-24 15:47:00,75.5,41.0,29.85,ESE,112,0.0,1.1,29,0.00,,---,0.00,VWS V14.01,2013-02-24 21:47:00,
2013-02-24 15:52:00,75.5,41.9,29.85,SE,135,4.0,4.0,30,0.00,,---,0.00,VWS V14.01,2013-02-24 21:52:00,
2013-02-24 15:57:00,74.9,40.6,29.85,ESE,112,5.8,5.8,29,0.00,,---,0.00,VWS V14.01,2013-02-24 21:57:00,
2013-02-24 16:02:00,74.2,40.8,29.85,SSE,158,3.1,3.6,30,0.00,,---,0.00,VWS V14.01,2013-02-24 22:02:00,
2013-02-24 16:07:00,73.3,40.0,29.85,ENE,68,2.9,2.9,30,0.00,,---,0.00,VWS V14.01,2013-02-24 22:07:00,
2013-02-24 16:12:00,72.2,39.1,29.85,NNE,22,0.0,2.0,30,0.00,,---,0.00,VWS V14.01,2013-02-24 22:12:00,
2013-02-24 16:17:00,71.9,38.8,29.85,ENE,68,0.0,2.0,30,0.00,,---,0.00,VWS V14.01,2013-02-24 22:17:00,
2013-02-24 16:22:00,70.8,38.7,29.85,SSE,158,3.6,6.3,31,0.00,,---,0.00,VWS V14.01,2013-02-24 22:22:00,
2013-02-24 16:27:00,69.9,38.7,29.85,ESE,112,1.6,1.6,32,0.00,,---,0.00,VWS V14.01,2013-02-24 22:27:00,
2013-02-24 16:32:00,69.2,38.1,29.85,ENE,68,0.0,2.2,32,0.00,,---,0.00,VWS V14.01,2013-02-24 22:32:00,
2013-02-24 16:37:00,68.6,38.4,29.85,SSE,158,2.7,3.8,33,0.00,,---,0.00,VWS V14.01,2013-02-24 22:37:00,
2013-02-24 16:42:00,67.9,37.8,29.85,SSE,158,2.9,2.9,33,0.00,,---,0.00,VWS V14.01,2013-02-24 22:42:00,
2013-02-24 16:47:00,67.4,37.3,29.85,SSE,158,2.0,3.1,33,0.00,,---,0.00,VWS V14.01,2013-02-24 22:47:00,
2013-02-24 16:52:00,67.0,37.8,29.85,SE,135,2.2,2.2,34,0.00,,---,0.00,VWS V14.01,2013-02-24 22:52:00,
2013-02-24 16:57:00,66.5,37.3,29.85,ENE,68,0.0,0.9,34,0.00,,---,0.00,VWS V14.01,2013-02-24 22:57:00,
2013-02-24 17:02:00,65.8,38.1,29.85,SSW,202,0.0,1.3,36,0.00,,---,0.00,VWS V14.01,2013-02-24 23:02:00,
2013-02-24 17:07:00,65.0,38.2,29.85,NW,315,0.0,0.0,37,0.00,,---,0.00,VWS V14.01,2013-02-24 23:07:00,
2013-02-24 17:12:00,64.1,37.4,29.85,ENE,68,0.0,0.0,37,0.00,,---,0.00,VWS V14.01,2013-02-24 23:12:00,
2013-02-24 17:17:00,63.4,39.3,29.85,WNW,292,0.0,0.0,41,0.00,,---,0.00,VWS V14.01,2013-02-24 23:17:00,
2013-02-24 17:22:00,62.7,38.7,29.85,NW,315,0.0,0.0,41,0.00,,---,0.00,VWS V14.01,2013-02-24 23:22:00,
2013-02-24 17:27:00,61.8,39.7,29.85,NW,315,0.0,0.0,44,0.00,,---,0.00,VWS V14.01,2013-02-24 23:27:00,
2013-02-24 17:32:00,61.1,39.0,29.85,NW,315,0.0,0.0,44,0.00,,---,0.00,VWS V14.01,2013-02-24 23:32:00,
2013-02-24 17:37:00,60.5,39.1,29.85,NW,315,0.0,0.0,45,0.00,,---,0.00,VWS V14.01,2013-02-24 23:37:00,
2013-02-24 17:42:00,59.8,38.5,29.85,NW,315,0.0,0.0,45,0.00,,---,0.00,VWS V14.01,2013-02-24 23:42:00,
2013-02-24 17:47:00,59.5,38.7,29.85,NW,315,0.0,0.0,46,0.00,,---,0.00,VWS V14.01,2013-02-24 23:47:00,
2013-02-24 17:52:00,59.1,38.9,29.85,NW,315,0.0,0.0,47,0.00,,---,0.00,VWS V14.01,2013-02-24 23:52:00,
2013-02-24 17:57:00,58.9,38.7,29.85,NW,315,0.0,0.0,47,0.00,,---,0.00,VWS V14.01,2013-02-24 23:57:00,
2013-02-24 18:02:00,58.6,39.5,29.85,NW,315,0.0,0.0,49,0.00,,---,0.00,VWS V14.01,2013-02-25 00:02:00,
2013-02-24 18:07:00,58.2,39.7,29.85,NW,315,0.0,0.0,50,0.00,,---,0.00,VWS V14.01,2013-02-25 00:07:00,
2013-02-24 18:12:00,57.8,40.3,29.85,NW,315,0.0,0.0,52,0.00,,---,0.00,VWS V14.01,2013-02-25 00:12:00,
2013-02-24 18:17:00,57.5,40.0,29.85,NW,315,0.0,0.0,52,0.00,,---,0.00,VWS V14.01,2013-02-25 00:17:00,
2013-02-24 18:22:00,57.1,39.7,29.85,NW,315,0.9,1.6,52,0.00,,---,0.00,VWS V14.01,2013-02-25 00:22:00,
2013-02-24 18:27:00,56.8,39.8,29.85,NW,315,0.0,0.0,53,0.00,,---,0.00,VWS V14.01,2013-02-25 00:27:00,
2013-02-24 18:32:00,56.4,40.0,29.82,NW,315,0.0,0.0,54,0.00,,---,0.00,VWS V14.01,2013-02-25 00:32:00,
2013-02-24 18:37:00,56.2,40.3,29.82,NW,315,0.0,0.0,55,0.00,,---,0.00,VWS V14.01,2013-02-25 00:37:00,
2013-02-24 18:42:00,56.0,41.0,29.82,NW,315,0.0,0.0,57,0.00,,---,0.00,VWS V14.01,2013-02-25 00:42:00,
2013-02-24 18:47:00,55.7,40.2,29.85,NNW,338,0.0,0.0,56,0.00,,---,0.00,VWS V14.01,2013-02-25 00:47:00,
2013-02-24 18:52:00,55.5,41.0,29.85,North,0,0.0,0.0,58,0.00,,---,0.00,VWS V14.01,2013-02-25 00:52:00,
2013-02-24 18:58:00,55.5,42.3,29.82,North,0,0.0,0.0,61,0.00,,---,0.00,VWS V14.01,2013-02-25 00:58:00,
2013-02-24 19:03:00,55.3,42.5,29.82,North,0,0.0,0.0,62,0.00,,---,0.00,VWS V14.01,2013-02-25 01:03:00,
2013-02-24 19:08:00,55.3,42.5,29.82,NNE,22,0.0,0.0,62,0.00,,---,0.00,VWS V14.01,2013-02-25 01:08:00,
2013-02-24 19:13:00,55.3,43.4,29.82,NNW,338,0.0,0.0,64,0.00,,---,0.00,VWS V14.01,2013-02-25 01:13:00,
2013-02-24 19:18:00,55.1,43.6,29.82,NNW,338,0.0,0.0,65,0.00,,---,0.00,VWS V14.01,2013-02-25 01:18:00,
2013-02-24 19:23:00,55.1,44.0,29.82,NNW,338,0.0,0.0,66,0.00,,---,0.00,VWS V14.01,2013-02-25 01:23:00,
2013-02-24 19:28:00,55.0,43.8,29.85,NNW,338,0.0,0.0,66,0.00,,---,0.00,VWS V14.01,2013-02-25 01:28:00,
2013-02-24 19:33:00,55.0,43.8,29.85,NNW,338,0.0,0.0,66,0.00,,---,0.00,VWS V14.01,2013-02-25 01:33:00,
2013-02-24 19:38:00,54.8,44.0,29.85,WSW,248,0.0,0.0,67,0.00,,---,0.00,VWS V14.01,2013-02-25 01:38:00,
2013-02-24 19:43:00,54.8,43.3,29.82,NE,45,0.0,0.0,65,0.00,,---,0.00,VWS V14.01,2013-02-25 01:43:00,
2013-02-24 19:48:00,55.0,44.2,29.82,NE,45,0.0,0.0,67,0.00,,---,0.00,VWS V14.01,2013-02-25 01:48:00,
2013-02-24 19:53:00,54.8,44.8,29.82,NNE,22,0.0,0.0,69,0.00,,---,0.00,VWS V14.01,2013-02-25 01:53:00,
2013-02-24 19:58:00,54.6,44.7,29.82,NW,315,0.0,0.0,69,0.00,,---,0.00,VWS V14.01,2013-02-25 01:58:00,
2013-02-24 20:03:00,54.6,44.7,29.82,NNW,338,0.0,0.0,69,0.00,,---,0.00,VWS V14.01,2013-02-25 02:03:00,
2013-02-24 20:08:00,54.4,45.2,29.82,WSW,248,0.0,0.0,71,0.00,,---,0.00,VWS V14.01,2013-02-25 02:08:00,
2013-02-24 20:13:00,54.6,44.7,29.82,WNW,292,0.0,0.0,69,0.00,,---,0.00,VWS V14.01,2013-02-25 02:13:00,
2013-02-24 20:18:00,55.0,45.0,29.82,SSE,158,0.0,1.3,69,0.00,,---,0.00,VWS V14.01,2013-02-25 02:18:00,
2013-02-24 20:23:00,55.3,44.6,29.82,SSW,202,0.0,0.0,67,0.00,,---,0.00,VWS V14.01,2013-02-25 02:23:00,
2013-02-24 20:28:00,55.7,44.5,29.82,SSE,158,0.0,0.0,66,0.00,,---,0.00,VWS V14.01,2013-02-25 02:28:00,
2013-02-24 20:33:00,55.9,44.3,29.82,ENE,68,0.0,0.0,65,0.00,,---,0.00,VWS V14.01,2013-02-25 02:33:00,
2013-02-24 20:38:00,56.0,44.0,29.82,SSE,158,2.9,2.9,64,0.00,,---,0.00,VWS V14.01,2013-02-25 02:38:00,
2013-02-24 20:43:00,56.2,44.2,29.82,ESE,112,4.0,4.0,64,0.00,,---,0.00,VWS V14.01,2013-02-25 02:43:00,
2013-02-24 20:48:00,56.4,44.0,29.82,ESE,112,2.5,4.0,63,0.00,,---,0.00,VWS V14.01,2013-02-25 02:48:00,
2013-02-24 20:53:00,56.6,42.9,29.82,ESE,112,1.6,2.9,60,0.00,,---,0.00,VWS V14.01,2013-02-25 02:53:00,
2013-02-24 20:58:00,56.9,43.2,29.82,ENE,68,0.0,0.0,60,0.00,,---,0.00,VWS V14.01,2013-02-25 02:58:00,
2013-02-24 21:03:00,56.9,43.2,29.82,West,270,0.0,0.0,60,0.00,,---,0.00,VWS V14.01,2013-02-25 03:03:00,
2013-02-24 21:08:00,56.9,42.8,29.82,NE,45,1.3,1.3,59,0.00,,---,0.00,VWS V14.01,2013-02-25 03:08:00,
2013-02-24 21:13:00,56.9,42.3,29.79,ESE,112,0.9,0.9,58,0.00,,---,0.00,VWS V14.01,2013-02-25 03:13:00,
2013-02-24 21:18:00,56.8,42.6,29.79,ESE,112,1.6,2.2,59,0.00,,---,0.00,VWS V14.01,2013-02-25 03:18:00,
2013-02-24 21:23:00,56.9,42.8,29.79,ENE,68,2.7,2.7,59,0.00,,---,0.00,VWS V14.01,2013-02-25 03:23:00,
2013-02-24 21:28:00,56.8,42.2,29.79,ENE,68,0.0,0.9,58,0.00,,---,0.00,VWS V14.01,2013-02-25 03:28:00,
2013-02-24 21:33:00,56.8,42.2,29.79,East,90,1.1,1.1,58,0.00,,---,0.00,VWS V14.01,2013-02-25 03:33:00,
2013-02-24 21:38:00,56.9,41.9,29.79,ESE,112,1.6,2.2,57,0.00,,---,0.00,VWS V14.01,2013-02-25 03:38:00,
2013-02-24 21:43:00,57.1,42.0,29.76,SSE,158,5.4,5.4,57,0.00,,---,0.00,VWS V14.01,2013-02-25 03:43:00,
2013-02-24 21:48:00,57.3,41.3,29.76,NE,45,0.0,1.1,55,0.00,,---,0.00,VWS V14.01,2013-02-25 03:48:00,
2013-02-24 21:53:00,57.5,41.5,29.76,WNW,292,0.9,1.1,55,0.00,,---,0.00,VWS V14.01,2013-02-25 03:53:00,
2013-02-24 21:58:00,57.7,41.2,29.79,ENE,68,2.9,2.9,54,0.00,,---,0.00,VWS V14.01,2013-02-25 03:58:00,
2013-02-24 22:03:00,57.7,41.2,29.79,ESE,112,1.1,1.1,54,0.00,,---,0.00,VWS V14.01,2013-02-25 04:03:00,
2013-02-24 22:08:00,57.5,41.5,29.79,SE,135,2.0,2.0,55,0.00,,---,0.00,VWS V14.01,2013-02-25 04:08:00,
2013-02-24 22:14:00,57.5,41.0,29.79,SSE,158,0.0,0.0,54,0.00,,---,0.00,VWS V14.01,2013-02-25 04:14:00,
2013-02-24 22:19:00,57.5,41.5,29.79,ENE,68,0.0,0.0,55,0.00,,---,0.00,VWS V14.01,2013-02-25 04:19:00,
2013-02-24 22:24:00,57.1,42.0,29.79,West,270,0.0,0.0,57,0.00,,---,0.00,VWS V14.01,2013-02-25 04:24:00,
2013-02-24 22:29:00,56.8,42.2,29.79,WNW,292,1.3,1.3,58,0.00,,---,0.00,VWS V14.01,2013-02-25 04:29:00,
2013-02-24 22:34:00,56.6,41.5,29.79,WNW,292,0.0,0.0,57,0.00,,---,0.00,VWS V14.01,2013-02-25 04:34:00,
2013-02-24 22:39:00,56.4,41.4,29.79,ENE,68,0.0,0.0,57,0.00,,---,0.00,VWS V14.01,2013-02-25 04:39:00,
2013-02-24 22:44:00,56.2,42.1,29.79,ESE,112,0.0,0.0,59,0.00,,---,0.00,VWS V14.01,2013-02-25 04:44:00,
2013-02-24 22:49:00,56.0,42.8,29.79,WSW,248,0.0,0.0,61,0.00,,---,0.00,VWS V14.01,2013-02-25 04:49:00,
2013-02-24 22:54:00,55.9,43.0,29.79,NNW,338,1.1,1.6,62,0.00,,---,0.00,VWS V14.01,2013-02-25 04:54:00,
2013-02-24 22:59:00,55.7,43.3,29.79,WNW,292,0.0,0.0,63,0.00,,---,0.00,VWS V14.01,2013-02-25 04:59:00,
2013-02-24 23:00:00,55.7,43.3,29.79,NW,315,0.9,0.9,63,0.00,,---,0.00,VWS V14.01,2013-02-25 05:00:00,
2013-02-24 23:05:00,55.7,42.5,29.79,ENE,68,0.0,0.0,61,0.00,,---,0.00,VWS V14.01,2013-02-25 05:05:00,
2013-02-24 23:10:00,55.7,42.5,29.79,NE,45,0.0,0.0,61,0.00,,---,0.00,VWS V14.01,2013-02-25 05:10:00,
2013-02-24 23:15:00,55.7,42.9,29.76,NE,45,0.0,0.0,62,0.00,,---,0.00,VWS V14.01,2013-02-25 05:15:00,
2013-02-24 23:20:00,55.9,43.0,29.76,East,90,0.0,1.3,62,0.00,,---,0.00,VWS V14.01,2013-02-25 05:20:00,
2013-02-24 23:25:00,56.2,43.4,29.76,NNW,338,2.2,2.2,62,0.00,,---,0.00,VWS V14.01,2013-02-25 05:25:00,
2013-02-24 23:30:00,56.4,43.1,29.76,NE,45,0.0,0.0,61,0.00,,---,0.00,VWS V14.01,2013-02-25 05:30:00,
2013-02-24 23:35:00,56.6,43.3,29.76,NNW,338,2.0,2.0,61,0.00,,---,0.00,VWS V14.01,2013-02-25 05:35:00,
2013-02-24 23:40:00,56.6,43.3,29.76,NNE,22,0.0,0.0,61,0.00,,---,0.00,VWS V14.01,2013-02-25 05:40:00,
2013-02-24 23:45:00,56.6,42.9,29.76,East,90,1.1,1.1,60,0.00,,---,0.00,VWS V14.01,2013-02-25 05:45:00,
2013-02-24 23:50:00,56.8,42.6,29.76,ESE,112,2.0,2.0,59,0.00,,---,0.00,VWS V14.01,2013-02-25 05:50:00,
2013-02-24 23:55:00,56.6,42.4,29.76,ENE,68,0.0,0.0,59,0.00,,---,0.00,VWS V14.01,2013-02-25 05:55:00,